M I D A S
Marine Information and Data Acquisition System
Tripno 1724 of the Zeeleeuw from 2009-03-16 08:21:21 to 2009-03-16 13:36:56
Back to CruiseResearch ActivitiesStationsMapUnderway DataData graphs

EquipmentUnitsComments
TimeDGPSUTC
LatitudeDGPSDM.mWGS84
LongitudeDGPSDM.mWGS84
SpeedMeteo Stationm/sRelative wind speed
DirectionMeteo StationdegRelative wind direction
TemperatureMeteo Stationdeg CelciusAir temperature
PressureMeteo StationPaAtmospheric pressure
HumidityMeteo Station%Relative humidity
Missing or incorrect values are displayed as -999
Metereological data collected by the RV Zeeleeuw from 2009-03-16 08:24:21 to 2009-03-16 13:46:07
Time Latitude Longitude Speed Direction Temperature Pressure Humidity
2009-03-16 08:25 51°13.678 2°55.912 2 36 7.2 103380 79
2009-03-16 08:26 51°13.693 2°55.852 2.7 40 7.2 103380 80
2009-03-16 08:27 51°13.699 2°55.788 2.6 41 7.2 103380 79
2009-03-16 08:28 51°13.706 2°55.77 2.1 23 7.3 103380 79
2009-03-16 08:29 51°13.709 2°55.766 3.2 25 7.3 103380 79
2009-03-16 08:30 51°13.728 2°55.744 2.9 252 7.4 103380 78
2009-03-16 08:31 51°13.803 2°55.662 3 317 7.5 103380 79
2009-03-16 08:32 51°13.934 2°55.558 4.1 327 7.6 103390 78
2009-03-16 08:33 51°14.078 2°55.45 3.7 324 7.7 103390 77
2009-03-16 08:34 51°14.22 2°55.32 4.7 318 7.8 103390 76
2009-03-16 08:35 51°14.34 2°55.124 7.4 327 7.9 103390 76
2009-03-16 08:36 51°14.447 2°54.893 7.6 23 7.9 103390 75
2009-03-16 08:37 51°14.53 2°54.623 6.6 317 7.9 103380 76
2009-03-16 08:38 51°14.608 2°54.338 7.9 319 7.8 103380 77
2009-03-16 08:39 51°14.717 2°54.105 3.8 20 7.7 103380 79
2009-03-16 08:40 51°14.833 2°54.19 3.4 355 7.6 103400 79
2009-03-16 08:41 51°14.735 2°54.335 7.4 340 7.4 103390 79
2009-03-16 08:42 51°14.553 2°54.219 8.6 333 7.4 103380 80
2009-03-16 08:43 51°14.384 2°54.008 8.8 333 7.4 103380 81
2009-03-16 08:44 51°14.219 2°53.782 9.8 330 7.4 103380 81
2009-03-16 08:45 51°14.083 2°53.508 9.8 328 7.4 103380 81
2009-03-16 08:46 51°13.954 2°53.225 9.7 328 7.4 103380 80
2009-03-16 08:47 51°13.823 2°52.94 8.4 328 7.5 103380 81
2009-03-16 08:48 51°13.696 2°52.652 8.2 328 7.5 103390 81
2009-03-16 08:49 51°13.573 2°52.358 9.6 328 7.6 103390 81
2009-03-16 08:50 51°13.453 2°52.062 8.8 327 7.6 103390 81
2009-03-16 08:51 51°13.376 2°51.797 7 320 7.7 103390 80
2009-03-16 08:52 51°13.362 2°51.576 6.1 319 7.8 103390 81
2009-03-16 08:53 51°13.353 2°51.361 5.8 19 7.8 103390 80
2009-03-16 08:54 51°13.395 2°51.218 3.6 21 7.9 103400 80
2009-03-16 08:55 51°13.43 2°51.142 3 255 8 103400 80
2009-03-16 08:56 51°13.456 2°51.097 1.9 267 8.1 103400 80
2009-03-16 08:57 51°13.472 2°51.065 2.2 19 8.1 103400 80
2009-03-16 08:58 51°13.474 2°51.034 2.2 24 8.2 103400 80
2009-03-16 08:59 51°13.475 2°51.005 2.1 20 8.1 103400 79
2009-03-16 09:00 51°13.476 2°50.977 2.2 19 8 103400 80
2009-03-16 09:01 51°13.475 2°50.947 2.3 28 8 103400 80
2009-03-16 09:02 51°13.475 2°50.918 2.2 22 8 103400 80
2009-03-16 09:03 51°13.471 2°50.891 1.9 27 8.1 103400 80
2009-03-16 09:04 51°13.456 2°50.864 2.3 25 8.1 103400 80
2009-03-16 09:05 51°13.436 2°50.837 2.4 25 8.1 103400 80
2009-03-16 09:06 51°13.417 2°50.809 2.4 25 8.1 103410 80
2009-03-16 09:07 51°13.399 2°50.779 2.8 25 8 103410 80
2009-03-16 09:08 51°13.383 2°50.748 2.6 25 8 103410 80
2009-03-16 09:09 51°13.369 2°50.717 2.4 19 8 103410 80
2009-03-16 09:10 51°13.364 2°50.695 1.8 21 7.9 103410 80
2009-03-16 09:11 51°13.368 2°50.686 1.4 21 7.9 103410 80
2009-03-16 09:12 51°13.378 2°50.688 1.7 24 8 103400 80
2009-03-16 09:13 51°13.389 2°50.69 1.6 25 8 103410 80
2009-03-16 09:14 51°13.4 2°50.687 1.7 24 8 103410 81
2009-03-16 09:15 51°13.412 2°50.68 1.3 265 8.1 103410 81
2009-03-16 09:16 51°13.422 2°50.672 1.9 19 8.2 103410 81
2009-03-16 09:17 51°13.431 2°50.673 1.3 28 8.2 103410 81
2009-03-16 09:18 51°13.427 2°50.713 1.2 38 8.1 103410 81
2009-03-16 09:19 51°13.409 2°50.791 1 27 8.2 103400 81
2009-03-16 09:20 51°13.394 2°50.862 1.4 22 8.2 103400 81
2009-03-16 09:21 51°13.376 2°50.88 2.4 32 8.3 103400 81
2009-03-16 09:22 51°13.357 2°50.869 2.6 25 8.2 103400 80
2009-03-16 09:23 51°13.338 2°50.852 2.6 21 8.2 103410 81
2009-03-16 09:24 51°13.319 2°50.831 2.8 17 8.1 103400 81
2009-03-16 09:25 51°13.302 2°50.806 2.9 9 8.1 103410 81
2009-03-16 09:26 51°13.283 2°50.778 2.9 9 8 103410 81
2009-03-16 09:27 51°13.266 2°50.751 2.8 8 7.9 103410 81
2009-03-16 09:28 51°13.248 2°50.721 2.3 4 7.9 103410 82
2009-03-16 09:29 51°13.231 2°50.691 2.4 2 7.9 103410 81
2009-03-16 09:30 51°13.214 2°50.66 2.5 2 7.9 103410 82
2009-03-16 09:31 51°13.197 2°50.631 2.3 2 7.8 103410 82
2009-03-16 09:32 51°13.181 2°50.6 2.2 4 7.8 103410 83
2009-03-16 09:33 51°13.164 2°50.568 2.5 2 7.8 103400 82
2009-03-16 09:34 51°13.148 2°50.538 2.6 2 7.8 103410 82
2009-03-16 09:35 51°13.132 2°50.508 2 358 7.8 103400 83
2009-03-16 09:36 51°13.104 2°50.472 2.8 348 7.8 103400 83
2009-03-16 09:37 51°13.052 2°50.402 4.1 338 7.8 103400 83
2009-03-16 09:38 51°13.005 2°50.302 3.9 335 7.9 103400 83
2009-03-16 09:39 51°12.955 2°50.208 3.6 336 8 103390 83
2009-03-16 09:40 51°12.914 2°50.127 3 338 8.1 103390 82
2009-03-16 09:41 51°12.881 2°50.054 3.6 336 8.2 103390 82
2009-03-16 09:42 51°12.852 2°49.987 3.4 336 8.2 103390 82
2009-03-16 09:43 51°12.823 2°49.929 2.6 338 8.3 103390 81
2009-03-16 09:44 51°12.794 2°49.874 3 337 8.3 103390 82
2009-03-16 09:45 51°12.764 2°49.819 3.2 335 8.3 103380 81
2009-03-16 09:46 51°12.732 2°49.763 3.2 337 8.3 103380 81
2009-03-16 09:47 51°12.7 2°49.706 2.8 337 8.4 103380 81
2009-03-16 09:48 51°12.668 2°49.646 3.3 337 8.4 103380 81
2009-03-16 09:49 51°12.636 2°49.586 3.2 334 8.4 103380 81
2009-03-16 09:50 51°12.604 2°49.526 3.5 339 8.4 103380 80
2009-03-16 09:51 51°12.573 2°49.466 3.5 340 8.4 103380 80
2009-03-16 09:52 51°12.541 2°49.406 3.5 341 8.4 103380 80
2009-03-16 09:53 51°12.51 2°49.346 3.1 340 8.4 103380 80
2009-03-16 09:54 51°12.481 2°49.286 3.3 336 8.4 103390 80
2009-03-16 09:55 51°12.453 2°49.224 3.2 335 8.5 103390 80
2009-03-16 09:56 51°12.428 2°49.172 2.9 339 8.5 103380 79
2009-03-16 09:57 51°12.407 2°49.125 3.1 339 8.5 103390 79
2009-03-16 09:58 51°12.388 2°49.082 2.7 335 8.5 103390 80
2009-03-16 09:59 51°12.362 2°49.016 5 334 8.5 103390 79
2009-03-16 10:00 51°12.282 2°48.831 7.9 332 8.5 103390 80
2009-03-16 10:01 51°12.177 2°48.564 8.9 330 8.5 103390 79
2009-03-16 10:02 51°12.097 2°48.251 7.5 331 8.4 103390 80
2009-03-16 10:03 51°12.021 2°47.93 9 332 8.4 103380 80
2009-03-16 10:04 51°11.948 2°47.603 9 333 8.3 103390 81
2009-03-16 10:05 51°11.871 2°47.283 9.5 332 8.2 103380 80
2009-03-16 10:06 51°11.793 2°46.957 8.1 332 8.2 103390 81
2009-03-16 10:07 51°11.715 2°46.632 9.7 331 8.2 103380 81
2009-03-16 10:08 51°11.633 2°46.301 9.7 331 8.2 103390 81
2009-03-16 10:09 51°11.552 2°45.977 9.5 333 8.2 103390 80
2009-03-16 10:10 51°11.471 2°45.651 9.9 333 8.2 103390 80
2009-03-16 10:11 51°11.389 2°45.328 8.2 330 8.2 103390 80
2009-03-16 10:12 51°11.309 2°45.006 10 331 8.3 103390 80
2009-03-16 10:13 51°11.229 2°44.684 9.7 331 8.3 103390 79
2009-03-16 10:14 51°11.147 2°44.362 9.3 330 8.4 103390 79
2009-03-16 10:15 51°11.068 2°44.038 7.8 331 8.4 103390 79
2009-03-16 10:16 51°10.989 2°43.72 9.8 330 8.4 103390 79
2009-03-16 10:17 51°10.908 2°43.397 9.4 330 8.4 103390 79
2009-03-16 10:18 51°10.827 2°43.074 7.9 332 8.4 103390 80
2009-03-16 10:19 51°10.744 2°42.75 7.9 333 8.5 103390 79
2009-03-16 10:20 51°10.673 2°42.422 9.3 332 8.4 103390 81
2009-03-16 10:21 51°10.605 2°42.094 9.4 331 8.4 103390 80
2009-03-16 10:22 51°10.544 2°41.76 9.5 331 8.3 103390 81
2009-03-16 10:23 51°10.479 2°41.428 9.7 331 8.3 103390 81
2009-03-16 10:24 51°10.414 2°41.102 9.9 333 8.3 103390 81
2009-03-16 10:25 51°10.349 2°40.77 10.2 331 8.3 103390 81
2009-03-16 10:26 51°10.282 2°40.438 10.2 331 8.3 103390 81
2009-03-16 10:27 51°10.215 2°40.101 8.3 331 8.4 103390 80
2009-03-16 10:28 51°10.145 2°39.771 8.2 331 8.4 103390 80
2009-03-16 10:29 51°10.074 2°39.442 9.4 331 8.4 103390 80
2009-03-16 10:30 51°10.009 2°39.109 9.3 330 8.5 103390 80
2009-03-16 10:31 51°9.942 2°38.774 9 330 8.5 103390 81
2009-03-16 10:32 51°9.875 2°38.437 7.8 331 8.5 103380 81
2009-03-16 10:33 51°9.808 2°38.106 9.7 331 8.5 103380 81
2009-03-16 10:34 51°9.738 2°37.769 9.8 330 8.5 103380 81
2009-03-16 10:35 51°9.668 2°37.432 8.5 330 8.6 103380 81
2009-03-16 10:36 51°9.596 2°37.083 8.3 330 8.6 103380 80
2009-03-16 10:37 51°9.526 2°36.752 8.7 330 8.6 103380 80
2009-03-16 10:38 51°9.452 2°36.417 9.7 329 8.6 103380 80
2009-03-16 10:39 51°9.385 2°36.078 9.9 330 8.6 103380 80
2009-03-16 10:40 51°9.315 2°35.739 9.9 330 8.6 103380 80
2009-03-16 10:41 51°9.241 2°35.402 8.5 330 8.7 103380 80
2009-03-16 10:42 51°9.173 2°35.068 8.3 331 8.7 103380 78
2009-03-16 10:43 51°9.104 2°34.728 9.7 331 8.7 103380 78
2009-03-16 10:44 51°9.032 2°34.39 8.4 332 8.7 103380 78
2009-03-16 10:45 51°8.959 2°34.043 8.3 332 8.6 103380 79
2009-03-16 10:46 51°8.901 2°33.715 7.7 331 8.7 103390 78
2009-03-16 10:47 51°8.875 2°33.443 5.4 324 8.6 103390 79
2009-03-16 10:48 51°8.897 2°33.294 4.8 316 8.6 103390 79
2009-03-16 10:49 51°8.918 2°33.201 3.4 25 8.7 103390 78
2009-03-16 10:50 51°8.913 2°33.159 3.2 252 8.8 103390 78
2009-03-16 10:51 51°8.905 2°33.123 3.2 257 8.9 103390 78
2009-03-16 10:52 51°8.896 2°33.087 2.8 259 9.1 103390 78
2009-03-16 10:53 51°8.887 2°33.054 2.4 261 9.1 103390 77
2009-03-16 10:54 51°8.878 2°33.021 1.7 261 9.2 103390 76
2009-03-16 10:55 51°8.87 2°32.99 1.8 262 9.2 103390 76
2009-03-16 10:56 51°8.861 2°32.959 1.8 263 9.2 103390 76
2009-03-16 10:57 51°8.852 2°32.928 1.9 265 9.2 103390 76
2009-03-16 10:58 51°8.842 2°32.899 2.3 266 9.2 103390 76
2009-03-16 10:59 51°8.833 2°32.87 2.3 268 9.2 103400 76
2009-03-16 11:00 51°8.824 2°32.842 2.2 266 9.2 103400 76
2009-03-16 11:01 51°8.817 2°32.815 1.9 264 9.1 103390 76
2009-03-16 11:02 51°8.826 2°32.802 2.6 258 9.1 103390 76
2009-03-16 11:03 51°8.868 2°32.826 3.1 246 9.1 103390 76
2009-03-16 11:04 51°8.921 2°32.867 2.8 244 9.2 103390 76
2009-03-16 11:05 51°8.962 2°32.905 2.6 249 9.2 103390 76
2009-03-16 11:06 51°8.999 2°32.946 2.8 22 9.2 103390 76
2009-03-16 11:07 51°9.037 2°32.989 3.1 23 9.2 103390 76
2009-03-16 11:08 51°9.076 2°33.035 3.1 248 9.2 103390 76
2009-03-16 11:09 51°9.116 2°33.084 2.7 21 9.2 103400 76
2009-03-16 11:10 51°9.158 2°33.134 2.6 247 9.2 103400 76
2009-03-16 11:11 51°9.202 2°33.188 2.7 247 9.2 103400 76
2009-03-16 11:12 51°9.247 2°33.24 3.5 247 9.1 103400 77
2009-03-16 11:13 51°9.29 2°33.287 2.8 248 9.1 103390 77
2009-03-16 11:14 51°9.33 2°33.334 2.7 250 9.1 103390 77
2009-03-16 11:15 51°9.37 2°33.381 2.7 251 9.1 103390 78
2009-03-16 11:16 51°9.406 2°33.434 2.6 254 9.1 103400 77
2009-03-16 11:17 51°9.429 2°33.499 2.3 259 9.1 103400 78
2009-03-16 11:18 51°9.451 2°33.566 2.5 257 9.1 103400 78
2009-03-16 11:19 51°9.475 2°33.632 2.5 256 9.1 103400 78
2009-03-16 11:20 51°9.5 2°33.697 2.5 257 9.1 103400 79
2009-03-16 11:21 51°9.52 2°33.764 2.3 260 9.1 103400 79
2009-03-16 11:22 51°9.532 2°33.834 1.5 265 9.1 103400 79
2009-03-16 11:23 51°9.535 2°33.894 1.8 26 9.1 103400 79
2009-03-16 11:24 51°9.533 2°33.927 2.4 25 9 103390 79
2009-03-16 11:25 51°9.532 2°33.944 2.5 22 8.9 103390 78
2009-03-16 11:26 51°9.532 2°33.948 3.2 271 8.8 103390 79
2009-03-16 11:27 51°9.535 2°33.95 2.3 262 8.8 103390 79
2009-03-16 11:28 51°9.581 2°34.045 3.3 23 8.7 103380 79
2009-03-16 11:29 51°9.69 2°34.21 6.3 19 8.7 103380 79
2009-03-16 11:30 51°9.836 2°34.383 6.4 315 8.7 103380 79
2009-03-16 11:31 51°9.983 2°34.56 5.6 316 8.7 103380 79
2009-03-16 11:32 51°10.131 2°34.734 5.9 316 8.7 103380 79
2009-03-16 11:33 51°10.277 2°34.912 5.5 318 8.7 103380 79
2009-03-16 11:34 51°10.423 2°35.085 6.2 317 8.7 103380 79
2009-03-16 11:35 51°10.57 2°35.251 5.4 317 8.7 103380 79
2009-03-16 11:36 51°10.717 2°35.42 5.3 315 8.7 103370 79
2009-03-16 11:37 51°10.863 2°35.59 5.1 316 8.7 103370 79
2009-03-16 11:38 51°11.007 2°35.766 5 316 8.7 103370 78
2009-03-16 11:39 51°11.153 2°35.937 5.1 317 8.7 103370 79
2009-03-16 11:40 51°11.298 2°36.11 5.1 318 8.7 103370 78
2009-03-16 11:41 51°11.443 2°36.283 5.7 319 8.7 103370 79
2009-03-16 11:42 51°11.586 2°36.46 5 320 8.7 103370 79
2009-03-16 11:43 51°11.732 2°36.633 5.5 319 8.7 103370 79
2009-03-16 11:44 51°11.881 2°36.799 5 318 8.7 103370 79
2009-03-16 11:45 51°12.032 2°36.956 5.6 320 8.7 103370 78
2009-03-16 11:46 51°12.204 2°37.059 6 320 8.6 103370 79
2009-03-16 11:47 51°12.379 2°37.13 5.4 317 8.6 103370 79
2009-03-16 11:48 51°12.56 2°37.175 5.8 318 8.6 103360 79
2009-03-16 11:49 51°12.742 2°37.224 5.4 316 8.6 103360 79
2009-03-16 11:50 51°12.929 2°37.255 6.6 317 8.7 103360 79
2009-03-16 11:51 51°13.11 2°37.276 6.4 319 8.7 103360 79
2009-03-16 11:52 51°13.295 2°37.294 6.9 317 8.6 103370 79
2009-03-16 11:53 51°13.482 2°37.279 6.2 317 8.6 103360 78
2009-03-16 11:54 51°13.671 2°37.232 8 319 8.6 103360 79
2009-03-16 11:55 51°13.863 2°37.178 7.5 317 8.6 103360 79
2009-03-16 11:56 51°14.051 2°37.119 7.5 319 8.5 103360 79
2009-03-16 11:57 51°14.238 2°37.081 6 318 8.5 103360 79
2009-03-16 11:58 51°14.423 2°37.062 7.4 317 8.5 103360 79
2009-03-16 11:59 51°14.609 2°37.044 6.3 316 8.5 103360 79
2009-03-16 12:00 51°14.796 2°37.033 6.2 317 8.4 103370 79
2009-03-16 12:01 51°14.983 2°37.043 7.5 316 8.4 103360 80
2009-03-16 12:02 51°15.172 2°37.054 6.2 316 8.4 103360 79
2009-03-16 12:03 51°15.361 2°37.07 6.5 315 8.3 103360 80
2009-03-16 12:04 51°15.549 2°37.095 7 316 8.3 103370 80
2009-03-16 12:05 51°15.732 2°37.163 6.7 316 8.3 103360 80
2009-03-16 12:06 51°15.912 2°37.25 5.9 315 8.3 103370 80
2009-03-16 12:07 51°16.088 2°37.353 6.2 22 8.3 103360 80
2009-03-16 12:08 51°16.236 2°37.529 5 318 8.3 103360 80
2009-03-16 12:09 51°16.358 2°37.71 3.2 26 8.3 103360 80
2009-03-16 12:10 51°16.402 2°37.808 1.8 270 8.4 103360 80
2009-03-16 12:11 51°16.412 2°37.833 2.1 269 8.5 103370 80
2009-03-16 12:12 51°16.418 2°37.839 2.8 270 8.5 103370 80
2009-03-16 12:13 51°16.419 2°37.84 2.8 21 8.5 103370 80
2009-03-16 12:14 51°16.419 2°37.839 2.2 22 8.5 103370 80
2009-03-16 12:15 51°16.416 2°37.836 2.4 20 8.5 103370 79
2009-03-16 12:16 51°16.413 2°37.83 2.2 28 8.5 103360 79
2009-03-16 12:17 51°16.424 2°37.845 2.9 257 8.5 103360 79
2009-03-16 12:18 51°16.467 2°37.906 2.2 251 8.6 103360 79
2009-03-16 12:19 51°16.509 2°37.963 2.8 249 8.7 103360 79
2009-03-16 12:20 51°16.558 2°37.994 2.7 252 8.7 103360 79
2009-03-16 12:21 51°16.599 2°38.04 2.8 258 8.8 103360 79
2009-03-16 12:22 51°16.637 2°38.089 3.3 257 8.8 103360 79
2009-03-16 12:23 51°16.675 2°38.136 2.5 254 8.8 103360 79
2009-03-16 12:24 51°16.713 2°38.185 2.4 253 8.9 103370 78
2009-03-16 12:25 51°16.752 2°38.233 3.3 255 8.9 103360 78
2009-03-16 12:26 51°16.792 2°38.281 2.4 252 8.9 103360 78
2009-03-16 12:27 51°16.831 2°38.328 2.4 252 8.9 103350 78
2009-03-16 12:28 51°16.87 2°38.377 2.7 253 8.9 103360 78
2009-03-16 12:29 51°16.908 2°38.424 3.1 253 8.9 103360 78
2009-03-16 12:30 51°16.947 2°38.473 3 254 8.9 103370 78
2009-03-16 12:31 51°16.984 2°38.521 1.6 257 9 103360 78
2009-03-16 12:32 51°17.022 2°38.568 2.1 252 9 103360 78
2009-03-16 12:33 51°17.06 2°38.616 2.5 252 9 103360 78
2009-03-16 12:34 51°17.095 2°38.667 2.2 256 9 103360 78
2009-03-16 12:35 51°17.127 2°38.72 2.1 255 9.1 103360 78
2009-03-16 12:36 51°17.157 2°38.772 2.7 258 9.1 103360 78
2009-03-16 12:37 51°17.184 2°38.81 2.6 260 9.2 103350 78
2009-03-16 12:38 51°17.202 2°38.823 2.9 259 9.2 103360 78
2009-03-16 12:39 51°17.216 2°38.824 2.8 259 9.2 103350 78
2009-03-16 12:40 51°17.231 2°38.878 0.5 35 9.2 103350 78
2009-03-16 12:41 51°17.169 2°39.023 3.1 351 9.2 103350 77
2009-03-16 12:42 51°17.033 2°39.224 4.9 343 8.8 103350 77
2009-03-16 12:43 51°16.871 2°39.41 5.1 340 8.6 103350 79
2009-03-16 12:44 51°16.72 2°39.62 5.3 345 8.4 103350 79
2009-03-16 12:45 51°16.579 2°39.844 4.4 343 8.4 103350 80
2009-03-16 12:46 51°16.438 2°40.072 4.6 343 8.4 103350 81
2009-03-16 12:47 51°16.3 2°40.295 4.7 343 8.4 103350 81
2009-03-16 12:48 51°16.159 2°40.521 5.4 341 8.4 103350 81
2009-03-16 12:49 51°16.013 2°40.743 4.9 339 8.5 103350 80
2009-03-16 12:50 51°15.87 2°40.97 4.9 337 8.5 103350 80
2009-03-16 12:51 51°15.725 2°41.195 5 334 8.6 103350 80
2009-03-16 12:52 51°15.582 2°41.424 6.1 337 8.6 103360 79
2009-03-16 12:53 51°15.458 2°41.678 5.7 332 8.5 103350 80
2009-03-16 12:54 51°15.412 2°41.979 4.5 333 8.5 103350 80
2009-03-16 12:55 51°15.384 2°42.282 4.6 334 8.4 103350 80
2009-03-16 12:56 51°15.352 2°42.592 5.2 332 8.4 103360 80
2009-03-16 12:57 51°15.323 2°42.907 5 332 8.4 103360 80
2009-03-16 12:58 51°15.301 2°43.213 4.4 331 8.4 103350 80
2009-03-16 12:59 51°15.272 2°43.526 4.3 328 8.4 103350 79
2009-03-16 13:00 51°15.24 2°43.844 4.6 332 8.4 103350 80
2009-03-16 13:01 51°15.212 2°44.153 4.6 329 8.5 103340 79
2009-03-16 13:02 51°15.189 2°44.472 4.3 326 8.5 103340 79
2009-03-16 13:03 51°15.16 2°44.786 4.3 327 8.6 103340 79
2009-03-16 13:04 51°15.132 2°45.094 4.1 325 8.6 103340 79
2009-03-16 13:05 51°15.11 2°45.401 3.7 324 8.7 103340 78
2009-03-16 13:06 51°15.089 2°45.708 3.8 321 8.7 103340 78
2009-03-16 13:07 51°15.067 2°46.015 3.8 324 8.8 103340 78
2009-03-16 13:08 51°15.042 2°46.32 3.8 322 8.8 103340 79
2009-03-16 13:09 51°15.018 2°46.626 3.6 324 8.9 103340 78
2009-03-16 13:10 51°14.991 2°46.93 3.8 319 8.9 103340 78
2009-03-16 13:11 51°14.966 2°47.236 4.5 320 8.9 103340 78
2009-03-16 13:12 51°14.943 2°47.544 4.2 319 9 103340 78
2009-03-16 13:13 51°14.933 2°47.854 4.5 320 9 103330 78
2009-03-16 13:14 51°14.925 2°48.161 4.1 319 9 103330 77
2009-03-16 13:15 51°14.917 2°48.465 3.9 318 9.1 103340 78
2009-03-16 13:16 51°14.908 2°48.77 3.9 319 9.1 103340 77
2009-03-16 13:17 51°14.898 2°49.076 4.2 316 9.1 103340 77
2009-03-16 13:18 51°14.892 2°49.38 3.9 320 9.1 103340 76
2009-03-16 13:19 51°14.882 2°49.684 4.8 317 9.3 103330 76
2009-03-16 13:20 51°14.87 2°49.989 4 319 9.3 103340 76
2009-03-16 13:21 51°14.855 2°50.295 4 319 9.3 103330 75
2009-03-16 13:22 51°14.84 2°50.602 4.6 316 9.3 103330 75
2009-03-16 13:23 51°14.818 2°50.908 4 320 9.3 103330 76
2009-03-16 13:24 51°14.791 2°51.214 4 318 9.3 103330 75
2009-03-16 13:25 51°14.768 2°51.522 3.9 321 9.3 103330 76
2009-03-16 13:26 51°14.74 2°51.829 4.3 321 9.3 103320 75
2009-03-16 13:27 51°14.713 2°52.139 4.5 319 9.3 103320 76
2009-03-16 13:28 51°14.692 2°52.451 4.2 317 9.3 103320 76
2009-03-16 13:29 51°14.68 2°52.764 4.8 319 9.3 103320 76
2009-03-16 13:30 51°14.667 2°53.081 4.8 320 9.3 103320 76
2009-03-16 13:31 51°14.626 2°53.392 4.2 322 9.3 103320 76
2009-03-16 13:32 51°14.59 2°53.706 5.1 320 9.3 103320 76
2009-03-16 13:33 51°14.569 2°54.021 4.8 322 9.3 103320 76
2009-03-16 13:34 51°14.534 2°54.333 5.2 322 9.3 103320 76
2009-03-16 13:35 51°14.481 2°54.638 4.9 325 9.3 103310 76
2009-03-16 13:36 51°14.402 2°54.934 5.4 328 9.4 103320 76
2009-03-16 13:37 51°14.299 2°55.193 4.7 333 9.3 103320 75
2009-03-16 13:38 51°14.192 2°55.352 2.3 342 9.2 103320 75
2009-03-16 13:39 51°14.091 2°55.456 1.9 337 9.3 103310 76
2009-03-16 13:40 51°13.979 2°55.538 2.1 352 9.4 103310 74
2009-03-16 13:41 51°13.871 2°55.61 1.7 352 9.5 103310 71
2009-03-16 13:42 51°13.771 2°55.688 1 326 9.8 103310 69
2009-03-16 13:43 51°13.704 2°55.804 1.4 264 10.1 103300 69
2009-03-16 13:44 51°13.676 2°55.908 1.3 269 10.4 103300 67
2009-03-16 13:45 51°13.665 2°55.954 1.6 26 10.6 103300 65